Time,TemperatureF,DewpointF,PressureIn,WindDirection,WindDirectionDegrees,WindSpeedMPH,WindSpeedGustMPH,Humidity,HourlyPrecipIn,Conditions,Clouds,dailyrainin,SoftwareType,DateUTC
2013-09-01 00:02:00,56.7,55.9,29.95,SSW,213,1.0,2.0,97,0.00,,,0.00,Wunderground v.1.15,2013-09-01 07:02:00,
2013-09-01 00:12:00,56.8,56.0,29.95,SSW,213,1.0,1.0,97,0.00,,,0.00,Wunderground v.1.15,2013-09-01 07:12:00,
2013-09-01 00:22:00,56.8,56.0,29.95,SSW,213,0.0,3.0,97,0.00,,,0.00,Wunderground v.1.15,2013-09-01 07:22:00,
2013-09-01 00:27:00,56.9,56.1,29.95,SSW,213,0.0,3.0,97,0.00,,,0.00,Wunderground v.1.15,2013-09-01 07:27:00,
2013-09-01 00:37:00,57.1,56.5,29.95,SSW,213,0.0,3.0,98,0.00,,,0.00,Wunderground v.1.15,2013-09-01 07:37:00,
2013-09-01 00:42:00,57.1,56.5,29.95,SSW,213,0.0,1.0,98,0.00,,,0.00,Wunderground v.1.15,2013-09-01 07:42:00,
2013-09-01 00:52:00,57.0,56.4,29.95,SSW,213,1.0,3.0,98,0.00,,,0.00,Wunderground v.1.15,2013-09-01 07:52:00,
2013-09-01 00:57:00,57.1,56.5,29.94,SSW,213,1.0,4.0,98,0.00,,,0.00,Wunderground v.1.15,2013-09-01 07:57:00,
2013-09-01 01:07:00,57.1,56.5,29.94,SSW,213,0.0,3.0,98,0.00,,,0.00,Wunderground v.1.15,2013-09-01 08:07:00,
2013-09-01 01:17:00,57.2,56.6,29.94,SSW,213,0.0,1.0,98,0.00,,,0.00,Wunderground v.1.15,2013-09-01 08:17:00,
2013-09-01 01:27:00,57.2,56.6,29.94,SSW,213,0.0,1.0,98,0.00,,,0.00,Wunderground v.1.15,2013-09-01 08:27:00,
2013-09-01 01:32:00,57.3,56.7,29.94,SSW,213,0.0,1.0,98,0.00,,,0.00,Wunderground v.1.15,2013-09-01 08:32:00,
2013-09-01 01:42:00,57.4,56.6,29.94,SSW,211,0.0,2.0,97,0.00,,,0.00,Wunderground v.1.15,2013-09-01 08:42:00,
2013-09-01 01:47:00,57.4,56.6,29.94,SSW,211,1.0,3.0,97,0.00,,,0.00,Wunderground v.1.15,2013-09-01 08:47:00,
2013-09-01 01:57:00,57.4,56.6,29.94,SSW,199,1.0,4.0,97,0.00,,,0.00,Wunderground v.1.15,2013-09-01 08:57:00,
2013-09-01 02:07:00,57.4,56.6,29.93,SSW,199,0.0,2.0,97,0.00,,,0.00,Wunderground v.1.15,2013-09-01 09:07:00,
2013-09-01 02:17:00,57.4,56.6,29.93,SSW,192,1.0,4.0,97,0.00,,,0.00,Wunderground v.1.15,2013-09-01 09:17:00,
2013-09-01 02:22:00,57.3,56.5,29.93,SSW,192,1.0,1.0,97,0.00,,,0.00,Wunderground v.1.15,2013-09-01 09:22:00,
2013-09-01 02:32:00,57.3,56.5,29.93,SSW,192,0.0,1.0,97,0.00,,,0.00,Wunderground v.1.15,2013-09-01 09:32:00,
2013-09-01 02:42:00,57.3,56.5,29.93,SSW,192,0.0,1.0,97,0.00,,,0.00,Wunderground v.1.15,2013-09-01 09:42:00,
2013-09-01 02:47:00,57.3,56.5,29.93,SSW,192,0.0,2.0,97,0.00,,,0.00,Wunderground v.1.15,2013-09-01 09:47:00,
2013-09-01 02:57:00,57.3,56.5,29.93,SSW,192,0.0,3.0,97,0.00,,,0.00,Wunderground v.1.15,2013-09-01 09:57:00,
2013-09-01 03:07:00,57.3,56.5,29.93,SSW,192,0.0,1.0,97,0.00,,,0.00,Wunderground v.1.15,2013-09-01 10:07:00,
2013-09-01 03:17:00,57.2,56.4,29.93,South,190,1.0,4.0,97,0.00,,,0.00,Wunderground v.1.15,2013-09-01 10:17:00,
2013-09-01 03:27:00,57.2,56.4,29.93,South,190,1.0,2.0,97,0.00,,,0.00,Wunderground v.1.15,2013-09-01 10:27:00,
2013-09-01 03:37:00,57.1,56.3,29.93,South,190,1.0,3.0,97,0.00,,,0.00,Wunderground v.1.15,2013-09-01 10:37:00,
2013-09-01 03:47:00,57.0,56.2,29.93,South,190,1.0,5.0,97,0.00,,,0.00,Wunderground v.1.15,2013-09-01 10:47:00,
2013-09-01 03:57:00,56.9,56.1,29.93,South,190,1.0,4.0,97,0.00,,,0.00,Wunderground v.1.15,2013-09-01 10:57:00,
2013-09-01 04:07:00,56.8,56.0,29.93,South,190,1.0,4.0,97,0.00,,,0.00,Wunderground v.1.15,2013-09-01 11:07:00,
2013-09-01 04:17:00,56.6,55.5,29.93,South,189,1.0,3.0,96,0.00,,,0.00,Wunderground v.1.15,2013-09-01 11:17:00,
2013-09-01 04:22:00,56.4,55.6,29.92,South,189,1.0,1.0,97,0.00,,,0.00,Wunderground v.1.15,2013-09-01 11:22:00,
2013-09-01 04:32:00,56.3,55.5,29.92,South,189,1.0,1.0,97,0.00,,,0.00,Wunderground v.1.15,2013-09-01 11:32:00,
2013-09-01 04:42:00,56.2,55.4,29.92,South,189,1.0,4.0,97,0.00,,,0.00,Wunderground v.1.15,2013-09-01 11:42:00,
2013-09-01 04:47:00,56.1,55.3,29.92,South,189,2.0,4.0,97,0.00,,,0.00,Wunderground v.1.15,2013-09-01 11:47:00,
2013-09-01 04:57:00,55.9,55.1,29.92,South,191,2.0,5.0,97,0.00,,,0.00,Wunderground v.1.15,2013-09-01 11:57:00,
2013-09-01 05:07:00,55.8,55.0,29.92,SSW,194,2.0,6.0,97,0.00,,,0.00,Wunderground v.1.15,2013-09-01 12:07:00,
2013-09-01 05:12:00,55.8,55.0,29.93,SSW,195,3.0,3.0,97,0.00,,,0.00,Wunderground v.1.15,2013-09-01 12:12:00,
2013-09-01 05:22:00,55.7,54.9,29.93,SSW,195,2.0,4.0,97,0.00,,,0.00,Wunderground v.1.15,2013-09-01 12:22:00,
2013-09-01 05:27:00,55.6,54.8,29.93,SSW,195,2.0,5.0,97,0.00,,,0.00,Wunderground v.1.15,2013-09-01 12:27:00,
2013-09-01 05:37:00,55.5,54.7,29.93,SSW,195,2.0,4.0,97,0.00,,,0.00,Wunderground v.1.15,2013-09-01 12:37:00,
2013-09-01 05:47:00,55.4,54.6,29.92,SSW,195,0.0,1.0,97,0.00,,,0.00,Wunderground v.1.15,2013-09-01 12:47:00,
2013-09-01 05:52:00,55.4,54.6,29.92,SSW,195,0.0,1.0,97,0.00,,,0.00,Wunderground v.1.15,2013-09-01 12:52:00,
2013-09-01 06:02:00,55.4,54.6,29.92,SSW,195,0.0,2.0,97,0.00,,,0.00,Wunderground v.1.15,2013-09-01 13:02:00,
2013-09-01 06:07:00,55.4,54.6,29.92,SSW,195,0.0,2.0,97,0.00,,,0.00,Wunderground v.1.15,2013-09-01 13:07:00,
2013-09-01 06:17:00,55.5,54.7,29.92,SSW,195,0.0,2.0,97,0.00,,,0.00,Wunderground v.1.15,2013-09-01 13:17:00,
2013-09-01 06:22:00,55.6,54.8,29.92,SSW,195,0.0,1.0,97,0.00,,,0.00,Wunderground v.1.15,2013-09-01 13:22:00,
2013-09-01 06:32:00,55.7,54.9,29.92,SSW,195,0.0,0.0,97,0.00,,,0.00,Wunderground v.1.15,2013-09-01 13:32:00,
2013-09-01 06:42:00,55.7,54.9,29.92,SSW,195,0.0,2.0,97,0.00,,,0.00,Wunderground v.1.15,2013-09-01 13:42:00,
2013-09-01 06:52:00,55.7,54.9,29.92,SSW,195,0.0,1.0,97,0.00,,,0.00,Wunderground v.1.15,2013-09-01 13:52:00,
2013-09-01 07:02:00,55.8,55.0,29.92,SSW,193,1.0,1.0,97,0.00,,,0.00,Wunderground v.1.15,2013-09-01 14:02:00,
2013-09-01 07:07:00,55.9,55.1,29.91,SSW,193,0.0,5.0,97,0.00,,,0.00,Wunderground v.1.15,2013-09-01 14:07:00,
2013-09-01 07:17:00,56.1,55.3,29.91,East,98,1.0,5.0,97,0.00,,,0.00,Wunderground v.1.15,2013-09-01 14:17:00,
2013-09-01 07:27:00,56.1,55.3,29.92,East,99,5.0,8.0,97,0.00,,,0.00,Wunderground v.1.15,2013-09-01 14:27:00,
2013-09-01 07:37:00,56.3,55.5,29.92,East,85,2.0,7.0,97,0.00,,,0.00,Wunderground v.1.15,2013-09-01 14:37:00,
2013-09-01 07:47:00,56.3,55.2,29.92,East,88,4.0,7.0,96,0.00,,,0.00,Wunderground v.1.15,2013-09-01 14:47:00,
2013-09-01 07:57:00,56.2,55.1,29.92,East,87,3.0,6.0,96,0.00,,,0.00,Wunderground v.1.15,2013-09-01 14:57:00,
2013-09-01 08:07:00,56.5,55.4,29.91,East,93,5.0,8.0,96,0.00,,,0.00,Wunderground v.1.15,2013-09-01 15:07:00,
2013-09-01 08:17:00,56.9,55.8,29.91,East,92,5.0,8.0,96,0.00,,,0.00,Wunderground v.1.15,2013-09-01 15:17:00,
2013-09-01 08:27:00,57.2,56.1,29.90,East,100,6.0,9.0,96,0.00,,,0.00,Wunderground v.1.15,2013-09-01 15:27:00,
2013-09-01 08:37:00,57.9,56.5,29.91,East,98,5.0,8.0,95,0.00,,,0.00,Wunderground v.1.15,2013-09-01 15:37:00,
2013-09-01 08:47:00,58.6,56.9,29.90,East,87,4.0,8.0,94,0.00,,,0.00,Wunderground v.1.15,2013-09-01 15:47:00,
2013-09-01 08:52:00,59.0,57.3,29.90,East,88,5.0,8.0,94,0.00,,,0.00,Wunderground v.1.15,2013-09-01 15:52:00,
2013-09-01 09:02:00,59.8,57.8,29.90,East,88,4.0,4.0,93,0.00,,,0.00,Wunderground v.1.15,2013-09-01 16:02:00,
2013-09-01 09:07:00,60.4,58.4,29.90,East,86,3.0,6.0,93,0.00,,,0.00,Wunderground v.1.15,2013-09-01 16:07:00,
2013-09-01 09:17:00,61.5,59.2,29.90,East,86,2.0,5.0,92,0.00,,,0.00,Wunderground v.1.15,2013-09-01 16:17:00,
2013-09-01 09:22:00,62.0,59.3,29.90,East,86,2.0,6.0,91,0.00,,,0.00,Wunderground v.1.15,2013-09-01 16:22:00,
2013-09-01 09:32:00,63.2,59.9,29.90,East,86,2.0,5.0,89,0.00,,,0.00,Wunderground v.1.15,2013-09-01 16:32:00,
2013-09-01 09:37:00,64.0,60.1,29.91,East,86,2.0,5.0,87,0.00,,,0.00,Wunderground v.1.15,2013-09-01 16:37:00,
2013-09-01 09:47:00,65.7,60.4,29.90,East,86,0.0,2.0,83,0.00,,,0.00,Wunderground v.1.15,2013-09-01 16:47:00,
2013-09-01 09:52:00,66.5,60.5,29.90,East,86,0.0,2.0,81,0.00,,,0.00,Wunderground v.1.15,2013-09-01 16:52:00,
2013-09-01 10:02:00,67.7,59.5,29.90,East,88,2.0,5.0,75,0.00,,,0.00,Wunderground v.1.15,2013-09-01 17:02:00,
2013-09-01 10:07:00,67.8,58.8,29.90,East,89,3.0,7.0,73,0.00,,,0.00,Wunderground v.1.15,2013-09-01 17:07:00,
2013-09-01 10:22:00,64.4,57.0,29.91,East,94,2.0,6.0,77,0.00,,,0.00,Wunderground v.1.15,2013-09-01 17:22:00,
2013-09-01 10:32:00,61.7,56.8,29.90,East,95,4.0,6.0,84,0.00,,,0.00,Wunderground v.1.15,2013-09-01 17:32:00,
2013-09-01 10:42:00,60.3,56.1,29.90,West,281,5.0,5.0,86,0.00,,,0.00,Wunderground v.1.15,2013-09-01 17:42:00,
2013-09-01 10:52:00,62.4,58.2,29.90,WNW,292,2.0,7.0,86,0.00,,,0.00,Wunderground v.1.15,2013-09-01 17:52:00,
2013-09-01 10:57:00,61.5,56.6,29.90,NW,306,4.0,10.0,84,0.00,,,0.00,Wunderground v.1.15,2013-09-01 17:57:00,
2013-09-01 11:07:00,62.5,58.3,29.90,WNW,302,2.0,5.0,86,0.00,,,0.00,Wunderground v.1.15,2013-09-01 18:07:00,
2013-09-01 11:17:00,61.8,57.2,29.90,WNW,301,4.0,6.0,85,0.00,,,0.00,Wunderground v.1.15,2013-09-01 18:17:00,
2013-09-01 11:27:00,62.1,57.5,29.90,WNW,300,3.0,5.0,85,0.00,,,0.00,Wunderground v.1.15,2013-09-01 18:27:00,
2013-09-01 11:37:00,60.7,56.8,29.90,West,278,5.0,8.0,87,0.00,,,0.00,Wunderground v.1.15,2013-09-01 18:37:00,
2013-09-01 11:42:00,61.0,57.1,29.90,West,281,3.0,6.0,87,0.00,,,0.00,Wunderground v.1.15,2013-09-01 18:42:00,
2013-09-01 11:52:00,60.8,56.6,29.90,WNW,292,4.0,4.0,86,0.00,,,0.00,Wunderground v.1.15,2013-09-01 18:52:00,
2013-09-01 12:02:00,63.2,59.6,29.90,WNW,292,1.0,3.0,88,0.00,,,0.00,Wunderground v.1.15,2013-09-01 19:02:00,
2013-09-01 12:12:00,63.6,58.0,29.90,WNW,302,4.0,4.0,82,0.00,,,0.00,Wunderground v.1.15,2013-09-01 19:12:00,
2013-09-01 12:22:00,62.8,57.9,29.90,West,275,3.0,7.0,84,0.00,,,0.00,Wunderground v.1.15,2013-09-01 19:22:00,
2013-09-01 12:32:00,63.2,58.3,29.90,WNW,284,2.0,2.0,84,0.00,,,0.00,Wunderground v.1.15,2013-09-01 19:32:00,
2013-09-01 12:42:00,64.7,58.0,29.90,NW,313,3.0,3.0,79,0.00,,,0.00,Wunderground v.1.15,2013-09-01 19:42:00,
2013-09-01 12:52:00,65.4,58.0,29.90,WNW,296,3.0,3.0,77,0.00,,,0.00,Wunderground v.1.15,2013-09-01 19:52:00,
2013-09-01 12:57:00,65.7,57.9,29.90,WSW,246,3.0,7.0,76,0.00,,,0.00,Wunderground v.1.15,2013-09-01 19:57:00,
2013-09-01 13:07:00,66.0,57.1,29.90,WNW,284,2.0,6.0,73,0.00,,,0.00,Wunderground v.1.15,2013-09-01 20:07:00,
2013-09-01 13:12:00,66.9,57.2,29.90,West,280,2.0,4.0,71,0.00,,,0.00,Wunderground v.1.15,2013-09-01 20:12:00,
2013-09-01 13:22:00,67.9,56.9,29.90,WSW,242,3.0,5.0,68,0.00,,,0.00,Wunderground v.1.15,2013-09-01 20:22:00,
2013-09-01 13:27:00,68.8,56.6,29.90,WSW,242,2.0,6.0,65,0.00,,,0.00,Wunderground v.1.15,2013-09-01 20:27:00,
2013-09-01 13:37:00,69.5,56.3,29.90,SSW,208,4.0,7.0,63,0.00,,,0.00,Wunderground v.1.15,2013-09-01 20:37:00,
2013-09-01 13:47:00,69.0,55.9,29.90,WSW,240,5.0,9.0,63,0.00,,,0.00,Wunderground v.1.15,2013-09-01 20:47:00,
2013-09-01 13:57:00,68.3,55.2,29.90,WSW,252,5.0,9.0,63,0.00,,,0.00,Wunderground v.1.15,2013-09-01 20:57:00,
2013-09-01 14:07:00,68.4,55.3,29.90,WSW,238,5.0,8.0,63,0.00,,,0.00,Wunderground v.1.15,2013-09-01 21:07:00,
2013-09-01 14:12:00,68.4,55.7,29.90,SW,224,6.0,6.0,64,0.00,,,0.00,Wunderground v.1.15,2013-09-01 21:12:00,
2013-09-01 14:22:00,68.5,56.3,29.90,SW,215,5.0,8.0,65,0.00,,,0.00,Wunderground v.1.15,2013-09-01 21:22:00,
2013-09-01 14:32:00,68.4,57.4,29.90,SW,217,6.0,6.0,68,0.00,,,0.00,Wunderground v.1.15,2013-09-01 21:32:00,
2013-09-01 14:42:00,68.8,57.0,29.89,SW,215,7.0,12.0,66,0.00,,,0.00,Wunderground v.1.15,2013-09-01 21:42:00,
2013-09-01 14:52:00,68.5,56.7,29.89,SW,232,7.0,7.0,66,0.00,,,0.00,Wunderground v.1.15,2013-09-01 21:52:00,
2013-09-01 15:02:00,68.3,56.9,29.89,SW,221,6.0,12.0,67,0.00,,,0.00,Wunderground v.1.15,2013-09-01 22:02:00,
2013-09-01 15:12:00,68.2,57.2,29.89,WSW,257,6.0,10.0,68,0.00,,,0.00,Wunderground v.1.15,2013-09-01 22:12:00,
2013-09-01 15:22:00,67.7,56.3,29.89,WSW,255,6.0,9.0,67,0.00,,,0.00,Wunderground v.1.15,2013-09-01 22:22:00,
2013-09-01 15:32:00,67.6,56.2,29.89,SSW,209,6.0,11.0,67,0.00,,,0.00,Wunderground v.1.15,2013-09-01 22:32:00,
2013-09-01 15:42:00,67.0,56.1,29.89,SSW,208,7.0,12.0,68,0.00,,,0.00,Wunderground v.1.15,2013-09-01 22:42:00,
2013-09-01 15:47:00,67.2,57.1,29.89,SW,232,6.0,12.0,70,0.00,,,0.00,Wunderground v.1.15,2013-09-01 22:47:00,
2013-09-01 15:57:00,67.6,57.1,29.88,WSW,242,5.0,9.0,69,0.00,,,0.00,Wunderground v.1.15,2013-09-01 22:57:00,
2013-09-01 16:02:00,68.2,57.2,29.88,South,185,5.0,9.0,68,0.00,,,0.00,Wunderground v.1.15,2013-09-01 23:02:00,
2013-09-01 16:12:00,67.7,56.8,29.88,SW,217,7.0,7.0,68,0.00,,,0.00,Wunderground v.1.15,2013-09-01 23:12:00,
2013-09-01 16:22:00,68.0,57.8,29.88,SW,230,5.0,5.0,70,0.00,,,0.00,Wunderground v.1.15,2013-09-01 23:22:00,
2013-09-01 16:27:00,68.5,57.9,29.88,SW,225,5.0,6.0,69,0.00,,,0.00,Wunderground v.1.15,2013-09-01 23:27:00,
2013-09-01 16:37:00,68.9,57.5,29.88,SSW,206,5.0,9.0,67,0.00,,,0.00,Wunderground v.1.15,2013-09-01 23:37:00,
2013-09-01 16:47:00,68.6,56.8,29.88,SSW,202,5.0,10.0,66,0.00,,,0.00,Wunderground v.1.15,2013-09-01 23:47:00,
2013-09-01 16:52:00,68.3,56.5,29.88,SSW,194,6.0,6.0,66,0.00,,,0.00,Wunderground v.1.15,2013-09-01 23:52:00,
2013-09-01 17:02:00,68.7,56.5,29.87,South,180,6.0,6.0,65,0.00,,,0.00,Wunderground v.1.15,2013-09-02 00:02:00,
2013-09-01 17:07:00,68.7,56.5,29.87,SW,215,6.0,10.0,65,0.00,,,0.00,Wunderground v.1.15,2013-09-02 00:07:00,
2013-09-01 17:17:00,68.5,56.7,29.87,WSW,238,7.0,14.0,66,0.00,,,0.00,Wunderground v.1.15,2013-09-02 00:17:00,
2013-09-01 17:27:00,68.2,56.8,29.87,SSW,206,8.0,15.0,67,0.00,,,0.00,Wunderground v.1.15,2013-09-02 00:27:00,
2013-09-01 17:32:00,68.6,57.2,29.87,WSW,239,7.0,13.0,67,0.00,,,0.00,Wunderground v.1.15,2013-09-02 00:32:00,
2013-09-01 17:42:00,68.1,58.3,29.87,SSW,192,10.0,10.0,71,0.00,,,0.00,Wunderground v.1.15,2013-09-02 00:42:00,
2013-09-01 17:52:00,67.9,58.5,29.87,SSW,207,8.0,8.0,72,0.00,,,0.00,Wunderground v.1.15,2013-09-02 00:52:00,
2013-09-01 18:02:00,67.9,58.9,29.87,SSW,211,7.0,7.0,73,0.00,,,0.00,Wunderground v.1.15,2013-09-02 01:02:00,
2013-09-01 18:07:00,67.7,58.7,29.86,SSE,161,8.0,8.0,73,0.00,,,0.00,Wunderground v.1.15,2013-09-02 01:07:00,
2013-09-01 18:17:00,67.9,59.3,29.86,South,181,7.0,14.0,74,0.00,,,0.00,Wunderground v.1.15,2013-09-02 01:17:00,
2013-09-01 18:27:00,68.0,60.5,29.86,South,191,6.0,13.0,77,0.00,,,0.00,Wunderground v.1.15,2013-09-02 01:27:00,
2013-09-01 18:32:00,68.1,60.6,29.86,SSE,153,6.0,12.0,77,0.00,,,0.00,Wunderground v.1.15,2013-09-02 01:32:00,
2013-09-01 18:37:00,68.3,60.8,29.86,South,184,7.0,15.0,77,0.00,,,0.00,Wunderground v.1.15,2013-09-02 01:37:00,
2013-09-01 18:47:00,68.0,60.9,29.86,SSW,200,7.0,14.0,78,0.00,,,0.00,Wunderground v.1.15,2013-09-02 01:47:00,
2013-09-01 18:52:00,67.4,60.3,29.86,SSW,204,7.0,12.0,78,0.00,,,0.00,Wunderground v.1.15,2013-09-02 01:52:00,
2013-09-01 19:02:00,66.5,60.5,29.87,SSW,204,8.0,8.0,81,0.00,,,0.00,Wunderground v.1.15,2013-09-02 02:02:00,
2013-09-01 19:12:00,65.8,60.5,29.87,SW,215,8.0,14.0,83,0.00,,,0.00,Wunderground v.1.15,2013-09-02 02:12:00,
2013-09-01 19:22:00,65.2,60.2,29.87,SSW,212,7.0,12.0,84,0.00,,,0.00,Wunderground v.1.15,2013-09-02 02:22:00,
2013-09-01 19:32:00,64.8,60.2,29.87,SSW,200,7.0,7.0,85,0.00,,,0.00,Wunderground v.1.15,2013-09-02 02:32:00,
2013-09-01 19:37:00,64.8,60.2,29.87,SSW,201,5.0,12.0,85,0.00,,,0.00,Wunderground v.1.15,2013-09-02 02:37:00,
2013-09-01 19:47:00,64.9,60.6,29.87,SSE,161,5.0,11.0,86,0.00,,,0.00,Wunderground v.1.15,2013-09-02 02:47:00,
2013-09-01 19:57:00,65.2,60.9,29.87,SSE,168,7.0,16.0,86,0.00,,,0.00,Wunderground v.1.15,2013-09-02 02:57:00,
2013-09-01 20:07:00,65.3,61.0,29.87,South,173,5.0,12.0,86,0.00,,,0.00,Wunderground v.1.15,2013-09-02 03:07:00,
2013-09-01 20:17:00,65.3,61.0,29.87,SW,217,4.0,9.0,86,0.00,,,0.00,Wunderground v.1.15,2013-09-02 03:17:00,
2013-09-01 20:27:00,65.3,61.3,29.87,SSW,202,4.0,10.0,87,0.00,,,0.00,Wunderground v.1.15,2013-09-02 03:27:00,
2013-09-01 20:32:00,65.3,61.3,29.87,South,190,5.0,5.0,87,0.00,,,0.00,Wunderground v.1.15,2013-09-02 03:32:00,
2013-09-01 20:42:00,65.2,61.2,29.88,SW,220,5.0,8.0,87,0.00,,,0.00,Wunderground v.1.15,2013-09-02 03:42:00,
2013-09-01 20:52:00,64.8,61.2,29.88,SSW,204,7.0,13.0,88,0.00,,,0.00,Wunderground v.1.15,2013-09-02 03:52:00,
2013-09-01 21:02:00,64.4,61.4,29.88,SSW,203,9.0,9.0,90,0.00,,,0.00,Wunderground v.1.15,2013-09-02 04:02:00,
2013-09-01 21:07:00,64.0,61.3,29.88,South,191,8.0,15.0,91,0.00,,,0.00,Wunderground v.1.15,2013-09-02 04:07:00,
2013-09-01 21:12:00,63.8,61.1,29.88,South,183,7.0,7.0,91,0.00,,,0.00,Wunderground v.1.15,2013-09-02 04:12:00,
2013-09-01 21:17:00,63.5,61.1,29.88,SSE,167,6.0,13.0,92,0.00,,,0.00,Wunderground v.1.15,2013-09-02 04:17:00,
2013-09-01 21:27:00,63.1,61.0,29.89,South,189,7.0,16.0,93,0.00,,,0.00,Wunderground v.1.15,2013-09-02 04:27:00,
2013-09-01 21:32:00,62.9,60.8,29.88,South,173,5.0,10.0,93,0.00,,,0.00,Wunderground v.1.15,2013-09-02 04:32:00,
2013-09-01 21:42:00,62.7,60.9,29.89,SSW,205,5.0,9.0,94,0.00,,,0.00,Wunderground v.1.15,2013-09-02 04:42:00,
2013-09-01 21:52:00,62.4,60.7,29.89,SSW,208,6.0,6.0,94,0.00,,,0.00,Wunderground v.1.15,2013-09-02 04:52:00,
2013-09-01 22:02:00,61.9,60.2,29.89,SSE,154,6.0,11.0,94,0.00,,,0.01,Wunderground v.1.15,2013-09-02 05:02:00,
2013-09-01 22:12:00,61.6,60.2,29.89,SSW,213,8.0,15.0,95,0.00,,,0.01,Wunderground v.1.15,2013-09-02 05:12:00,
2013-09-01 22:22:00,61.4,60.0,29.89,SSW,207,8.0,8.0,95,0.00,,,0.01,Wunderground v.1.15,2013-09-02 05:22:00,
2013-09-01 22:32:00,61.4,60.0,29.89,South,188,7.0,7.0,95,0.00,,,0.01,Wunderground v.1.15,2013-09-02 05:32:00,
2013-09-01 22:37:00,61.5,60.1,29.89,SSW,212,7.0,12.0,95,0.00,,,0.01,Wunderground v.1.15,2013-09-02 05:37:00,
2013-09-01 22:47:00,61.7,60.5,29.89,SSW,209,6.0,10.0,96,0.00,,,0.01,Wunderground v.1.15,2013-09-02 05:47:00,
2013-09-01 22:52:00,61.6,60.4,29.90,South,191,7.0,15.0,96,0.00,,,0.01,Wunderground v.1.15,2013-09-02 05:52:00,
2013-09-01 23:02:00,61.6,60.4,29.90,SSW,203,6.0,11.0,96,0.00,,,0.01,Wunderground v.1.15,2013-09-02 06:02:00,
2013-09-01 23:12:00,61.6,60.4,29.90,SSE,155,6.0,12.0,96,0.00,,,0.01,Wunderground v.1.15,2013-09-02 06:12:00,
2013-09-01 23:22:00,61.8,60.6,29.90,SSE,153,7.0,7.0,96,0.00,,,0.01,Wunderground v.1.15,2013-09-02 06:22:00,
2013-09-01 23:32:00,61.9,60.7,29.90,South,179,5.0,5.0,96,0.00,,,0.01,Wunderground v.1.15,2013-09-02 06:32:00,
2013-09-01 23:42:00,61.9,60.7,29.89,SSE,161,4.0,12.0,96,0.00,,,0.01,Wunderground v.1.15,2013-09-02 06:42:00,
2013-09-01 23:47:00,61.9,60.7,29.89,SSE,164,3.0,12.0,96,0.00,,,0.01,Wunderground v.1.15,2013-09-02 06:47:00,
2013-09-01 23:57:00,62.0,60.8,29.89,SSW,192,3.0,8.0,96,0.00,,,0.01,Wunderground v.1.15,2013-09-02 06:57:00,